ZHONGXING-2D

Last updated on Sun Apr 12 2026 00:02:55 GMT+0000 (Coordinated Universal Time)

1 43920U 19001A 26101.54643082 -.00000335 00000+0 00000+0 0 9991 2 43920 0.0580 60.0150 0000367 299.9636 166.5188 1.00270906 53418
UTC large
Height (km)
Speed (km/s)
/
Latitude / Longitude
Inclination (degrees)
Orbital Period (minutes)
Azimuth
Elevation
Range (km)
Doppler Factor

Next 0 passes for location: London (51.5072 / 0.1276)

Sorry there are no passes over London.
ZHONGXING-2D